Wind_Gust
11 10 13 11 11 12 12 10 7 10 7 8 10 8 10 6 3 2 2 3 4 6 6 7 6 6 7 6 6 6 5 6 5 6 6 6 6 6 9 8 7 8
8 9 9 9 9 7 9 11 10 10 9 7 7 9 4 6 3 2 3 5 4 5 6 7 6 6 5 6 7 8 6 6 6 4 7 6 6 6 7 8 8 6
9 10 12 12 12 9 9 7 8 8 10 7 6 7 8 4 6 3 4 4 5 5 6 7 7 5 5 5 5 5 7 6 6 4 6 7 6 7 7 8 8 8
8 10 11 10 10 11 10 11 7 7 7 8 6 5 7 5 5 5 4 5 6 5 4 6 8 6 6 7 7 7 6 5 4 5 5 3 3 4 7 7 7 8
9 9 8 9 8 10 10 11 10 8 7 7 6 5 8 7 6 5 5 5 4 5 5 6 6 7 5 7 7 8 6 7 5 5 5 4 4 5 6 8 9 9
7 8 9 9 10 12 11 11 11 10 9 7 7 6 6 5 5 5 5 6 4 5 5 5 6 6 7 6 8 8 7 8 5 7 7 6 5 5 7 7 9 9
9 8 9 10 9 9 11 10 9 9 9 9 8 6 7 6 5 5 5 5 5 4 5 5 6 5 5 6 7 8 7 7 7 8 8 4 6 5 5 7 7 8
9 7 8 9 9 8 10 10 10 10 10 9 8 6 7 8 6 5 5 6 6 5 5 5 5 6 5 6 7 8 6 5 7 8 7 5 5 4 4 6 7 9
8 8 8 7 8 8 9 9 9 9 8 11 9 7 4 6 8 7 7 5 6 5 5 5 5 6 4 6 5 7 7 6 6 7 6 5 6 4 5 6 7 8
9 9 10 8 8 5 6 8 9 8 7 9 8 7 8 4 4 7 6 6 6 5 5 5 4 4 5 5 6 6 8 7 6 7 7 5 5 5 5 6 8 8
10 11 12 11 10 10 8 6 6 7 6 8 9 7 5 6 5 4 5 6 8 6 5 4 5 5 4 4 6 5 6 8 7 6 6 6 6 6 6 8 8 8
11 13 13 13 12 12 10 8 9 8 7 7 6 8 4 4 5 3 4 5 5 5 5 5 5 5 5 6 6 7 7 6 6 6 5 6 5 5 6 7 7 9
8 9 13 14 13 12 11 10 10 9 9 9 5 3 5 5 2 4 2 4 3 3 4 6 6 5 5 4 4 5 7 8 6 6 5 4 4 3 4 5 7 9
10 11 10 13 14 13 13 11 10 12 11 10 5 5 5 4 6 6 4 3 4 4 1 2 3 4 4 4 4 4 5 5 6 7 5 4 3 2 2 2 3 5
13 12 13 12 13 15 9 12 11 10 9 8 7 7 7 4 4 2 2 2 1 2 2 3 4 5 5 6 7 6 6 7 7 7 7 6 3 2 2 3 3 4
12 12 12 12 11 10 9 10 13 8 8 10 8 6 6 6 2 1 2 2 2 1 1 2 4 5 5 7 5 6 7 6 6 6 6 7 7 5 3 3 4 5
13 13 12 13 10 10 8 8 10 9 11 11 10 7 6 7 7 7 7 4 2 3 3 4 5 5 6 8 7 5 5 7 8 7 6 7 6 7 8 8 6 6
15 15 17 14 12 11 11 9 10 11 10 11 11 9 8 7 10 7 7 8 7 6 5 7 7 6 6 6 8 8 6 6 6 7 8 7 7 8 9 8 9 8
17 18 17 17 15 13 13 14 15 15 14 14 13 8 8 13 10 10 11 10 10 10 10 9 7 7 8 6 6 6 6 5 5 5 6 7 7 8 9 9 9 9
17 18 18 15 14 15 15 16 17 15 12 11 11 12 13 12 12 13 12 12 11 10 9 10 11 12 13 11 9 7 4 4 5 5 5 6 7 8 8 9 10 11
16 18 17 15 15 15 16 16 14 13 14 12 12 12 13 13 13 13 13 12 13 11 10 12 14 16 17 16 13 9 4 3 5 5 6 7 7 7 9 9 9 10
16 15 15 14 14 15 17 16 14 13 13 10 11 11 10 11 12 13 14 14 13 13 13 14 15 19 19 18 15 11 7 4 4 6 8 9 9 8 9 11 9 8
14 14 14 14 13 16 15 13 13 13 12 10 13 13 14 14 12 10 10 12 13 14 14 12 13 17 19 19 19 15 9 8 7 6 7 9 12 10 10 9 8 7
12 12 13 13 14 15 13 11 10 10 11 10 12 11 14 11 9 9 10 12 12 13 13 11 12 13 17 19 19 18 12 12 9 8 8 8 11 10 9 7 6 6
10 11 12 12 13 11 11 11 11 11 8 9 10 9 9 7 9 11 10 11 11 9 12 13 11 11 14 16 17 18 15 12 11 9 9 10 9 13 9 5 4 8
11 12 12 12 11 10 11 10 7 9 12 11 10 10 10 10 10 11 12 12 11 12 13 12 13 12 13 14 14 15 15 14 10 11 12 13 11 10 13 4 8 14
Wind_Speed
7 6 8 7 7 7 7 6 4 6 4 5 6 5 6 3 2 2 1 2 3 4 4 5 4 4 4 4 4 4 3 4 4 3 4 4 3 4 5 5 5 5
5 6 6 6 6 5 5 6 6 6 6 5 5 5 3 4 2 2 2 3 3 4 4 5 4 4 4 4 5 5 4 4 4 2 4 4 4 3 4 5 5 4
6 6 7 8 7 6 6 4 5 5 6 5 4 4 5 3 4 2 2 3 3 3 4 5 5 4 4 4 3 3 4 4 4 3 4 5 3 4 4 5 5 6
5 6 7 6 7 7 6 6 4 4 4 5 4 3 4 3 3 3 3 3 4 3 3 4 5 4 4 5 5 4 4 3 2 3 3 1 1 2 4 4 4 4
6 5 5 6 5 6 6 7 6 5 5 5 4 3 5 4 4 3 3 3 3 4 3 4 5 5 4 4 4 5 4 4 3 3 3 2 2 3 3 4 5 5
4 5 5 6 6 7 7 7 7 6 6 5 5 4 4 4 4 3 3 4 3 3 3 4 4 4 5 4 5 5 5 5 4 5 4 4 3 3 4 4 5 6
6 5 6 6 6 6 7 6 6 6 5 5 5 4 5 4 4 4 3 3 4 3 3 3 4 4 4 4 4 5 5 5 5 5 5 3 4 4 3 4 4 5
6 4 5 5 6 5 7 6 6 6 6 5 6 4 4 5 4 4 3 3 3 4 3 4 4 4 4 4 5 5 4 3 5 5 5 4 4 3 3 4 5 6
5 6 5 5 5 4 5 6 6 6 5 7 6 5 3 4 5 4 5 4 4 3 4 3 4 4 3 4 4 5 5 4 4 5 4 4 4 3 3 4 5 5
6 6 7 6 5 3 3 3 4 5 5 5 5 5 5 3 3 5 4 4 4 3 3 3 3 3 3 4 5 5 5 5 5 5 4 3 4 4 4 4 6 5
7 7 8 7 6 6 6 4 4 4 3 5 6 5 3 4 3 2 4 4 5 4 4 3 3 4 3 3 4 4 4 5 5 5 5 4 4 4 3 5 6 5
6 7 8 8 7 8 7 5 5 5 5 4 4 6 3 3 3 2 2 3 3 4 4 4 4 4 4 4 5 5 5 4 4 4 4 4 3 4 4 5 5 6
5 6 7 8 8 8 7 5 6 6 6 6 3 1 3 3 2 2 2 3 2 2 3 4 4 4 3 3 3 4 5 5 4 4 3 3 3 1 2 3 4 5
6 6 6 6 7 8 8 6 6 7 7 6 4 3 4 2 2 3 2 2 3 3 1 1 2 3 3 3 3 3 3 4 4 4 4 3 2 1 1 0 1 2
6 6 5 6 6 9 6 5 7 6 6 4 4 5 4 3 2 1 1 1 1 2 2 2 3 3 3 4 4 4 4 5 5 5 5 4 3 1 1 1 1 2
7 7 6 6 6 5 5 4 6 5 4 4 5 4 3 4 2 1 0 1 2 1 1 1 2 3 3 5 3 3 5 4 4 4 4 5 5 4 2 2 3 3
8 8 7 8 6 6 5 5 5 6 5 6 6 5 4 5 4 5 5 3 1 2 2 3 3 3 4 6 6 4 3 4 5 5 4 4 4 5 5 6 5 4
8 9 9 8 7 7 6 5 6 7 6 6 7 6 5 5 6 4 4 5 4 4 3 3 4 6 5 4 3 4 4 4 3 3 4 4 5 5 6 6 6 6
10 11 10 10 9 8 8 8 9 9 9 9 8 5 5 8 6 7 7 6 6 6 6 6 5 7 8 6 5 3 4 3 3 3 4 4 4 5 6 6 6 6
9 9 10 9 8 9 9 10 10 9 8 7 6 7 8 7 8 8 8 8 7 6 6 6 7 11 11 10 8 5 2 3 3 3 4 4 5 5 5 6 6 7
8 10 9 9 9 9 10 10 9 8 9 7 7 7 8 8 8 8 8 8 8 7 7 8 8 13 14 13 12 9 3 2 3 3 4 5 5 5 6 6 6 6
8 9 8 8 8 9 10 10 9 8 8 6 6 6 6 6 7 8 9 8 8 8 8 9 9 16 15 15 13 10 7 2 2 3 5 6 6 6 6 7 6 5
8 8 9 9 8 10 10 8 8 8 7 6 7 8 8 8 7 6 6 7 8 8 9 8 8 13 15 15 15 13 7 4 4 3 4 6 7 7 6 6 5 5
7 8 8 8 9 9 8 7 6 6 6 6 7 7 8 6 5 6 6 7 8 8 8 7 7 10 14 14 15 15 10 6 5 4 5 5 6 6 5 3 2 4
6 7 7 7 8 7 6 7 7 6 5 5 6 5 5 4 5 6 6 6 6 6 9 9 7 8 12 13 14 14 10 6 5 4 5 6 5 7 5 2 1 4
6 7 7 7 7 6 6 6 4 5 6 5 5 5 5 6 6 6 7 6 6 7 7 7 7 7 9 11 12 12 12 7 5 5 6 8 7 5 7 2 2 6
Wind_Direction
145 148 143 144 149 149 147 140 140 135 142 153 160 179 176 178 142 133 128 110 120 119 120 120 122 122 125 131 140 130 144 167 173 179 201 205 219 147 156 167 176 176
144 137 131 130 129 130 131 139 145 145 154 166 165 153 146 134 146 127 143 114 106 115 111 104 98 111 127 126 133 129 122 137 156 146 174 199 213 158 164 164 168 137
138 139 144 147 146 141 136 127 133 145 147 153 136 138 141 137 134 99 90 96 103 108 109 112 102 102 108 104 96 101 122 127 148 157 170 203 173 177 171 161 157 163
153 153 150 140 140 144 138 125 118 120 117 125 147 140 132 130 116 110 92 88 104 101 100 97 107 97 102 110 104 88 98 96 125 134 150 98 109 147 160 163 152 136
150 138 131 133 131 129 131 130 138 140 140 139 125 129 125 125 118 99 94 84 94 110 98 98 95 95 99 100 111 109 101 100 76 102 116 110 85 141 175 165 161 148
107 116 123 127 133 134 136 146 149 140 138 139 156 129 118 120 118 115 112 108 95 105 109 105 103 96 94 96 96 96 111 105 98 106 109 128 116 124 157 166 158 148
125 120 121 128 130 141 137 143 139 136 142 148 129 127 128 121 121 121 119 119 116 120 128 133 123 104 94 101 95 93 80 107 104 102 107 100 114 92 105 146 153 142
128 124 132 134 134 140 139 143 138 139 143 137 137 142 136 135 127 126 117 122 120 116 107 107 108 105 111 113 112 100 82 79 97 94 91 85 91 80 86 116 137 140
122 126 127 130 130 139 137 137 136 135 142 136 132 132 117 133 141 133 132 124 105 103 101 91 98 102 93 112 114 118 110 89 102 109 115 123 108 123 114 118 122 137
126 119 108 100 90 67 93 115 126 128 126 118 122 124 124 98 106 128 123 115 112 109 112 116 104 107 90 101 125 127 124 122 114 112 118 137 150 155 138 129 143 136
114 113 108 103 99 94 81 72 75 90 99 118 115 105 115 119 109 112 119 130 140 149 145 146 156 146 132 121 126 126 132 132 131 129 140 160 178 174 149 144 153 163
92 101 104 107 104 92 85 81 83 76 72 62 88 121 106 111 132 143 158 160 155 166 159 155 163 168 173 176 158 141 130 124 130 138 153 163 181 183 149 149 154 154
70 85 100 102 97 94 83 73 68 62 59 58 42 69 129 138 148 168 187 155 164 160 172 166 165 170 174 172 167 151 146 137 132 124 153 177 222 226 148 146 151 156
59 53 59 87 97 81 74 71 60 53 42 39 30 26 360 316 219 210 219 156 169 175 154 135 135 148 154 156 153 155 145 147 149 153 156 203 265 336 8 14 202 185
74 69 74 65 74 91 61 39 53 52 59 53 33 9 354 303 254 215 222 226 181 168 152 142 155 187 186 170 160 164 164 166 172 165 166 168 185 229 3 14 342 311
75 70 60 62 66 72 95 102 105 100 95 84 67 37 353 342 13 40 183 237 221 243 155 180 202 191 201 197 185 169 170 160 151 165 172 171 173 184 229 273 241 246
75 73 71 71 68 79 74 80 85 96 99 86 70 56 34 21 33 29 14 17 350 283 258 237 226 215 212 207 202 177 166 165 169 174 170 170 177 179 200 219 235 231
58 61 67 60 59 61 67 64 66 61 56 59 57 39 22 36 39 29 33 28 42 47 31 343 327 353 337 297 257 222 197 182 179 173 176 181 190 196 209 206 215 218
64 62 56 57 51 47 49 54 55 53 45 42 40 17 35 45 23 26 26 22 33 34 23 13 7 4 351 328 296 272 275 279 211 184 187 212 210 211 210 215 219 224
61 66 64 57 55 55 50 52 54 51 48 44 40 36 44 41 31 30 23 26 23 23 26 29 39 12 14 7 353 338 253 240 269 235 223 215 218 220 228 229 221 216
52 62 62 59 54 58 57 52 51 48 47 40 37 37 41 42 33 30 23 22 20 18 29 35 29 18 21 19 17 5 348 198 254 279 266 250 234 222 221 224 234 236
50 54 55 55 58 60 58 51 42 41 41 29 46 41 37 44 39 39 31 24 21 24 31 29 21 20 21 21 19 17 3 349 326 261 263 267 260 241 236 233 232 223
50 54 53 47 46 55 54 50 43 35 33 22 47 42 37 31 31 32 27 30 27 29 32 28 25 17 22 23 22 15 12 9 354 319 280 271 268 262 254 256 248 232
54 61 63 56 52 51 49 47 45 44 37 22 46 42 44 20 19 29 32 32 31 27 26 29 20 15 22 21 23 18 16 12 349 336 308 296 292 293 290 313 303 271
53 59 65 67 64 55 51 48 43 42 30 31 38 41 47 30 31 35 29 30 28 28 28 31 17 12 18 19 21 19 17 8 354 338 321 297 293 297 312 51 113 278
53 59 58 59 61 59 55 55 50 48 37 40 36 38 34 31 31 33 29 17 11 19 18 25 20 14 14 17 23 18 13 9 1 356 334 318 316 307 309 22 199 256